Location: Oberkirch
(48.5323°N, 8.0787°E)
Time: 19:26:01
(UTC+00:00)

O/OREOS (USA 219) - Pass Details

Date: 15 March 2026
Orbit: 577 x 597 km, 72.0° (Epoch: 18 April)

Event Time Altitude Azimuth Distance (km) Brightness Sun altitude
Rises 18:45:47 0° 324° (NW) 2,848 ? -12.8°
Reaches altitude 10° 18:48:17 10° 312° (NW) 1,938 ? -13.2°
Maximum altitude 18:51:54 26° 255° (WSW) 1,171 ? -13.8°
Drops below altitude 10° 18:55:29 10° 198° (SSW) 1,915 ? -14.4°
Sets 18:57:57 0° 186° (S) 2,807 ? -14.8°
